Weather History for Marianna, FL

Change the Weather History Date:

Friday, July 19, 2013

  Actual Average Record
Temperature  
Mean Temperature 82 °F 82 °F  
Max Temperature 90 °F 92 °F 100 °F (2000)
Min Temperature 74 °F 72 °F 71 °F (1999)
Degree Days  
Heating Degree Days 0    
Month to date heating degree days 0  
Since 1 June heating degree days 0  
Since 1 July heating degree days 0  
Cooling Degree Days 17    
Month to date cooling degree days 275  
Year to date cooling degree days 1160  
Since 1 June cooling degree days 724  
Growing Degree Days 30 (Base 50)    
Moisture  
Dew Point 72 °F    
Average Humidity 77    
Maximum Humidity 94    
Minimum Humidity 59    
Precipitation  
Precipitation 0.61 in 0.16 in 1.08 in (2014)
Month to date precipitation 6.92 3.34  
Year to date precipitation 31.92 31.13  
Sea Level Pressure  
Sea Level Pressure 30.04 in    
Wind  
Wind Speed 2 mph (SSE)    
Max Wind Speed 21 mph    
Max Gust Speed 29 mph    
Visibility 9 miles    
Events Fog , Rain , Thunderstorm    
T = Trace of Precipitation, MM = Missing Value Source: NWS Daily Summary

Daily Weather History Graph

Daily Weather History Graph

Search for Another Location

Airport:

Trip Planner

Search our weather history database for the weather conditions in past years. The results will help you decide how hot, cold, wet, or windy it might be!

Date:

Astronomy

Jul. 19, 2013 Rise Set
Actual Time 5:50 AM CDT 7:43 PM CDT
Civil Twilight 5:23 AM CDT 8:10 PM CDT
Nautical Twilight 4:50 AM CDT 8:42 PM CDT
Astronomical Twilight 4:16 AM CDT 9:17 PM CDT
Moon 4:45 PM CDT (7/19) 2:29 AM CDT (7/19)
Length of Visible Light 14h 46m
Length of Day
13h 52m
Waxing Gibbous, 87% of the Moon is Illuminated
Jul 19
Waxing Gibbous
Jul 22
Full
Jul 29
Last Quarter
Aug 6
New
Aug 14
First Quarter

Hourly Weather History & Observations

Time (CDT) Temp. Heat Index Dew Point Humidity Pressure Visibility Wind Dir Wind Speed Gust Speed Precip Events Conditions
12:53 AM 73.9 °F - 72.0 °F 93% 30.07 in 10.0 mi Calm Calm - N/A   Clear
1:53 AM 73.9 °F - 71.1 °F 91% 30.06 in 10.0 mi Calm Calm - N/A   Clear
2:53 AM 73.9 °F - 72.0 °F 93% 30.06 in 10.0 mi South 4.6 mph - N/A   Scattered Clouds
3:53 AM 73.9 °F - 71.1 °F 91% 30.05 in 10.0 mi Calm Calm - N/A   Clear
4:53 AM 73.9 °F - 71.1 °F 91% 30.05 in 10.0 mi Calm Calm - N/A   Clear
5:53 AM 73.9 °F - 71.1 °F 91% 30.05 in 10.0 mi Calm Calm - N/A   Clear
6:53 AM 75.9 °F - 72.0 °F 87% 30.07 in 10.0 mi Calm Calm - N/A   Clear
7:53 AM 81.0 °F 84.9 °F 71.1 °F 72% 30.09 in 10.0 mi Calm Calm - N/A   Clear
8:53 AM 82.0 °F 86.3 °F 71.1 °F 69% 30.10 in 10.0 mi Calm Calm - N/A   Partly Cloudy
9:53 AM 84.9 °F 90.7 °F 72.0 °F 65% 30.09 in 10.0 mi Calm Calm - N/A   Clear
10:53 AM 87.1 °F 93.6 °F 72.0 °F 61% 30.09 in 10.0 mi Calm Calm - N/A   Mostly Cloudy
11:53 AM 84.9 °F 90.1 °F 71.1 °F 63% 30.08 in 10.0 mi East 4.6 mph - N/A   Partly Cloudy
12:53 PM 86.0 °F 91.5 °F 71.1 °F 61% 30.06 in 10.0 mi Variable 4.6 mph - N/A   Clear
1:53 PM 87.1 °F 93.6 °F 72.0 °F 61% 30.03 in 10.0 mi SSE 5.8 mph - N/A   Scattered Clouds
2:53 PM 88.0 °F 93.8 °F 71.1 °F 57% 30.01 in 10.0 mi Variable 6.9 mph - N/A   Partly Cloudy
3:53 PM 88.0 °F 93.8 °F 71.1 °F 57% 30.00 in 10.0 mi South 6.9 mph - N/A   Partly Cloudy
4:36 PM 78.8 °F - 73.4 °F 83% 30.03 in 1.8 mi SE 19.6 mph 28.8 mph 0.05 in Rain Heavy Rain
4:44 PM 75.2 °F - 71.6 °F 89% 30.03 in 0.5 mi SSE 8.1 mph 25.3 mph 0.37 in Fog , Rain , Thunderstorm Heavy Thunderstorms and Rain
4:53 PM 75.0 °F - 70.0 °F 84% 30.02 in 0.8 mi SE 6.9 mph - 0.58 in Rain , Thunderstorm Heavy Thunderstorms and Rain
4:57 PM 75.2 °F - 71.6 °F 89% 30.02 in 1.2 mi SSE 5.8 mph - 0.02 in Rain , Thunderstorm Heavy Thunderstorms and Rain
5:01 PM 75.2 °F - 71.6 °F 89% 30.01 in 2.0 mi Calm Calm - 0.03 in Rain Heavy Rain
5:09 PM 78.8 °F - 73.4 °F 83% 30.00 in 8.0 mi Calm Calm - 0.03 in Rain Light Rain
5:50 PM 78.8 °F - 73.4 °F 83% 30.00 in 10.0 mi South 3.5 mph - 0.03 in Thunderstorm Clear
5:53 PM 80.1 °F 85.1 °F 75.0 °F 85% 30.00 in 10.0 mi Calm Calm - 0.03 in Thunderstorm Clear
6:05 PM 80.6 °F 86.2 °F 75.2 °F 84% 30.00 in 10.0 mi Calm Calm - N/A   Clear
6:53 PM 79.0 °F - 73.0 °F 82% 30.00 in 10.0 mi Calm Calm - N/A   Clear
7:53 PM 77.0 °F - 75.0 °F 94% 30.00 in 10.0 mi Calm Calm - N/A   Clear
8:53 PM 77.0 °F - 73.9 °F 90% 30.02 in 10.0 mi SSE 4.6 mph - N/A   Clear
9:53 PM 75.9 °F - 73.0 °F 91% 30.03 in 10.0 mi South 4.6 mph - N/A   Clear
10:53 PM 75.0 °F - 73.0 °F 94% 30.04 in 10.0 mi Calm Calm - N/A   Clear
11:45 PM 75.2 °F - 73.4 °F 94% 30.05 in 10.0 mi Calm Calm - N/A   Mostly Cloudy
11:53 PM 75.0 °F - 73.0 °F 94% 30.05 in 10.0 mi SSE 3.5 mph - N/A   Mostly Cloudy